• In Czech Republic
  • List of Countries
  • For 7 days
  • Water Temperature
  • Satellite Maps
  • Weather Map
  • Weather Widgets
  • user-avatar
    Login

    Hourly Weather Priuralnoe

    Today, 20 September, Thursday

    Time Temperature Precipitation Wind Pressure Humidity
    00:00 +9°C° 0 mm 5 mps 751 mmHg 76%
    01:00 +9°C° 0 mm 5 mps 751 mmHg 79%
    02:00 +8°C° 0 mm 5 mps 751 mmHg 80%
    03:00 +8°C° 0 mm 5 mps 752 mmHg 82%
    04:00 +7°C° 0 mm 5 mps 751 mmHg 85%
    05:00 +7°C° 0 mm 5 mps 751 mmHg 86%
    06:00 +7°C° 0 mm 5 mps 752 mmHg 86%
    07:00 +7°C° 0 mm 5 mps 752 mmHg 86%
    08:00 +9°C° 0 mm 5 mps 752 mmHg 77%
    09:00 +10°C° 0 mm 6 mps 752 mmHg 68%
    10:00 +13°C° 0 mm 6 mps 753 mmHg 59%
    11:00 +14°C° 0 mm 6 mps 753 mmHg 53%
    12:00 +15°C° 0 mm 7 mps 753 mmHg 46%
    13:00 +16°C° 0 mm 7 mps 753 mmHg 40%
    14:00 +17°C° 0 mm 7 mps 753 mmHg 38%
    15:00 +17°C° 0 mm 7 mps 753 mmHg 36%
    16:00 +17°C° 0 mm 7 mps 753 mmHg 34%
    17:00 +16°C° 0 mm 5 mps 753 mmHg 39%
    18:00 +14°C° 0 mm 4 mps 753 mmHg 43%
    19:00 +13°C° 0 mm 3 mps 753 mmHg 47%
    20:00 +12°C° 0 mm 3 mps 753 mmHg 51%
    21:00 +12°C° 0 mm 2 mps 753 mmHg 54%
    22:00 +12°C° 0 mm 2 mps 753 mmHg 57%
    23:00 +10°C° 0 mm 2 mps 753 mmHg 59%

    Tomorrow, 21 September, Friday

    Time Temperature Precipitation Wind Pressure Humidity
    00:00 +11°C° 0 mm 1 mps 753 mmHg 62%
    01:00 +11°C° 0 mm 1 mps 753 mmHg 64%
    02:00 +11°C° 0 mm 1 mps 753 mmHg 63%
    03:00 +11°C° 0 mm 1 mps 754 mmHg 63%
    04:00 +12°C° 0 mm 1 mps 754 mmHg 62%
    05:00 +12°C° 0 mm 1 mps 754 mmHg 62%
    06:00 +11°C° 0 mm 0 mps 754 mmHg 62%
    07:00 +11°C° 0 mm 0 mps 754 mmHg 62%
    08:00 +14°C° 0 mm 1 mps 754 mmHg 59%
    09:00 +15°C° 0 mm 1 mps 754 mmHg 55%
    10:00 +18°C° 0 mm 1 mps 755 mmHg 51%
    11:00 +18°C° 0 mm 2 mps 755 mmHg 48%
    12:00 +19°C° 0 mm 3 mps 755 mmHg 45%
    13:00 +20°C° 0 mm 4 mps 755 mmHg 43%
    14:00 +20°C° 0 mm 4 mps 755 mmHg 43%
    15:00 +20°C° 0 mm 4 mps 755 mmHg 43%
    16:00 +20°C° 0 mm 5 mps 756 mmHg 43%
    17:00 +19°C° 0 mm 4 mps 756 mmHg 46%
    18:00 +17°C° 0 mm 3 mps 757 mmHg 50%
    19:00 +16°C° 0 mm 3 mps 757 mmHg 54%
    20:00 +14°C° 0 mm 3 mps 757 mmHg 56%
    21:00 +13°C° 0 mm 3 mps 758 mmHg 58%
    22:00 +13°C° 0 mm 2 mps 758 mmHg 60%
    23:00 +12°C° 0 mm 2 mps 759 mmHg 62%

    Day after tomorrow, 22 September, Saturday

    Time Temperature Precipitation Wind Pressure Humidity
    00:00 +12°C° 0 mm 2 mps 759 mmHg 64%
    01:00 +10°C° 0 mm 2 mps 759 mmHg 66%
    02:00 +10°C° 0 mm 2 mps 759 mmHg 68%
    03:00 +9°C° 0 mm 2 mps 760 mmHg 70%
    04:00 +9°C° 0 mm 2 mps 760 mmHg 72%
    05:00 +9°C° 0 mm 2 mps 761 mmHg 73%
    06:00 +9°C° 0 mm 2 mps 761 mmHg 74%
    07:00 +9°C° 0 mm 2 mps 761 mmHg 75%
    08:00 +12°C° 0 mm 2 mps 761 mmHg 67%
    09:00 +13°C° 0 mm 3 mps 762 mmHg 58%
    10:00 +16°C° 0 mm 3 mps 762 mmHg 50%
    11:00 +18°C° 0 mm 3 mps 762 mmHg 45%
    12:00 +19°C° 0 mm 3 mps 762 mmHg 40%
    13:00 +20°C° 0 mm 3 mps 761 mmHg 34%
    14:00 +21°C° 0 mm 3 mps 761 mmHg 34%
    15:00 +21°C° 0 mm 2 mps 761 mmHg 34%
    16:00 +23°C° 0 mm 2 mps 761 mmHg 34%
    17:00 +20°C° 0 mm 2 mps 761 mmHg 40%
    18:00 +19°C° 0 mm 2 mps 762 mmHg 46%
    19:00 +18°C° 0 mm 1 mps 762 mmHg 52%
    20:00 +16°C° 0 mm 1 mps 762 mmHg 55%
    21:00 +16°C° 0 mm 1 mps 762 mmHg 58%
    22:00 +15°C° 0 mm 1 mps 762 mmHg 60%
    23:00 +15°C° 0 mm 1 mps 762 mmHg 62%

    23 September, Sunday

    Time Temperature Precipitation Wind Pressure Humidity
    00:00 +13°C° 0 mm 0 mps 762 mmHg 64%
    01:00 +13°C° 0 mm 0 mps 762 mmHg 66%
    02:00 +13°C° 0 mm 0 mps 762 mmHg 67%
    03:00 +13°C° 0 mm 0 mps 762 mmHg 68%
    04:00 +12°C° 0 mm 0 mps 762 mmHg 69%
    05:00 +12°C° 0 mm 0 mps 762 mmHg 69%
    06:00 +14°C° 0 mm 1 mps 762 mmHg 68%
    07:00 +14°C° 0 mm 1 mps 762 mmHg 67%
    08:00 +16°C° 0 mm 1 mps 762 mmHg 60%
    09:00 +19°C° 0 mm 1 mps 762 mmHg 53%
    10:00 +20°C° 0 mm 2 mps 762 mmHg 47%
    11:00 +21°C° 0 mm 2 mps 762 mmHg 44%
    12:00 +23°C° 0 mm 2 mps 761 mmHg 41%
    13:00 +24°C° 0 mm 2 mps 761 mmHg 38%
    14:00 +25°C° 0 mm 2 mps 761 mmHg 36%
    15:00 +25°C° 0 mm 3 mps 761 mmHg 34%
    16:00 +25°C° 0 mm 3 mps 760 mmHg 32%
    17:00 +24°C° 0 mm 3 mps 760 mmHg 34%
    18:00 +21°C° 0 mm 2 mps 760 mmHg 37%
    19:00 +20°C° 0 mm 2 mps 760 mmHg 39%
    20:00 +19°C° 0 mm 2 mps 759 mmHg 40%
    21:00 +18°C° 0 mm 2 mps 759 mmHg 40%
    22:00 +18°C° 0 mm 3 mps 759 mmHg 40%
    23:00 +17°C° 0 mm 3 mps 759 mmHg 42%

    24 September, Monday

    Time Temperature Precipitation Wind Pressure Humidity
    00:00 +17°C° 0 mm 3 mps 759 mmHg 43%
    01:00 +16°C° 0 mm 3 mps 758 mmHg 44%
    02:00 +16°C° 0 mm 3 mps 758 mmHg 46%
    03:00 +16°C° 0 mm 3 mps 758 mmHg 48%
    04:00 +14°C° 0 mm 3 mps 758 mmHg 50%
    05:00 +14°C° 0 mm 3 mps 758 mmHg 51%
    06:00 +14°C° 0 mm 3 mps 758 mmHg 51%
    07:00 +14°C° 0 mm 4 mps 758 mmHg 51%
    08:00 +18°C° 0 mm 4 mps 758 mmHg 45%
    09:00 +20°C° 0 mm 5 mps 757 mmHg 39%
    10:00 +22°C° 0 mm 6 mps 757 mmHg 32%
    11:00 +23°C° 0 mm 6 mps 757 mmHg 31%
    12:00 +24°C° 0 mm 6 mps 757 mmHg 29%
    13:00 +26°C° 0 mm 7 mps 756 mmHg 27%
    14:00 +26°C° 0 mm 6 mps 756 mmHg 27%
    15:00 +26°C° 0 mm 6 mps 756 mmHg 27%
    16:00 +26°C° 0 mm 5 mps 756 mmHg 27%
    17:00 +25°C° 0 mm 5 mps 756 mmHg 30%
    18:00 +22°C° 0 mm 4 mps 756 mmHg 33%
    19:00 +20°C° 0 mm 3 mps 756 mmHg 36%
    20:00 +20°C° 0 mm 3 mps 756 mmHg 38%
    21:00 +19°C° 0 mm 3 mps 756 mmHg 40%
    22:00 +18°C° 0 mm 3 mps 757 mmHg 41%
    23:00 +18°C° 0 mm 3 mps 756 mmHg 44%

    25 September, Tuesday

    Time Temperature Precipitation Wind Pressure Humidity
    00:00 +18°C° 0 mm 3 mps 756 mmHg 48%
    01:00 +17°C° 0 mm 3 mps 756 mmHg 51%
    02:00 +17°C° 0 mm 3 mps 756 mmHg 51%
    03:00 +15°C° 0 mm 4 mps 756 mmHg 52%
    04:00 +15°C° 0 mm 4 mps 756 mmHg 53%
    05:00 +15°C° 0 mm 4 mps 756 mmHg 51%
    06:00 +15°C° 0 mm 5 mps 756 mmHg 50%
    07:00 +16°C° 0 mm 5 mps 756 mmHg 48%
    08:00 +18°C° 0 mm 7 mps 755 mmHg 45%
    09:00 +21°C° 0 mm 8 mps 755 mmHg 42%
    10:00 +23°C° 0 mm 9 mps 755 mmHg 38%
    11:00 +23°C° 0 mm 9 mps 755 mmHg 38%
    12:00 +24°C° 0 mm 9 mps 755 mmHg 39%
    13:00 +26°C° 0 mm 10 mps 754 mmHg 39%
    14:00 +24°C° 0 mm 9 mps 754 mmHg 39%
    15:00 +24°C° 0 mm 8 mps 754 mmHg 40%
    16:00 +23°C° 0 mm 8 mps 754 mmHg 40%
    17:00 +22°C° 0 mm 6 mps 754 mmHg 43%
    18:00 +21°C° 0 mm 5 mps 755 mmHg 47%
    19:00 +20°C° 0 mm 3 mps 755 mmHg 50%
    20:00 +20°C° 0 mm 4 mps 755 mmHg 47%
    21:00 +20°C° 0 mm 4 mps 755 mmHg 45%
    22:00 +20°C° 0 mm 5 mps 755 mmHg 43%
    23:00 +19°C° 0 mm 5 mps 756 mmHg 42%
    Show more